Regional Weather Roundup
Issued by NWS

Home | Current Version | Previous Version | Graphics & Text | Print | Product List | Glossary On
Versions: 1 2 3 4 5 6 7 8 9 10 11 12 13 14 15 16 17 18 19 20 21 22 23 24 25 26 27 28 29 30 31 32 33 34 35 36 37 38 39 40 41 42 43 44 45 46 47 48 49 50
000
ASUS43 KLMK 290510
RWRKY
KENTUCKY REGIONAL WEATHER ROUNDUP
NATIONAL WEATHER SERVICE LOUISVILLE KY
100 AM EDT FRI MAY 29 2015

NOTE "FAIR" INDICATES FEW OR NO CLOUDS BELOW 12,000 FEET
WITH NO SIGNIFICANT WEATHER AND/OR OBSTRUCTIONS TO VISIBILITY.

KYZ001>023-026-027-061>063-070>075-290600-
WESTERN AND SOUTH CENTRAL KENTUCKY

CITY           SKY/WX    TMP DP  RH WIND       PRES   REMARKS
PADUCAH        CLEAR     69  66  90 SE5       30.07F
HENDERSON      CLEAR     73  64  73 SE5       30.08S
OWENSBORO      PTCLDY    73  67  81 SE6       30.11F
HOPKINSVILLE   CLEAR     73  66  78 S6        30.10F
BOWLING GREEN  CLEAR     74  64  71 S12       30.13F
GLASGOW        CLEAR     70  64  81 SE5       30.14F
$$

KYZ024-025-028>034-038-045-046-053-290600-
NORTH CENTRAL KENTUCKY

CITY           SKY/WX    TMP DP  RH WIND       PRES   REMARKS
LOUISVILLE/SDF PTCLDY    71  64  78 SE6       30.13F
LOUISVILLE/LOU CLEAR     70  65  84 CALM      30.14F
FORT KNOX      CLEAR     66  64  91 E5        30.12F
$$

KYZ035>037-039>044-047>052-055>060-089>105-290600-
NORTHEAST KENTUCKY

CITY           SKY/WX    TMP DP  RH WIND       PRES   REMARKS
LEXINGTON      CLOUDY    68  65  90 CALM      30.17F
COVINGTON      MOCLDY    69  65  86 S5        30.16F
FRANKFORT      CLOUDY    69  66  90 E5        30.15F
$$

KYZ054-064>069-076>088-106>120-290600-
SOUTHEAST KENTUCKY

CITY           SKY/WX    TMP DP  RH WIND       PRES   REMARKS
JACKSON        CLOUDY    70  66  87 CALM      30.20F
LONDON         MOCLDY    68  64  87 CALM      30.20F
SOMERSET       FOG       64  64 100 CALM      30.20F VSB 1/2
MIDDLESBORO    CLOUDY    68  66  94 CALM      30.22S
MONTICELLO     MOCLDY    70  68  93 CALM      30.20F
$$




USA.gov is the U.S. government's official web portal to all federal, state and local government web resources and services.